Havre City County Airport Havre US
ICAO: KHVR
IATA: HVR
Category: Medium
Scheduled Services: No

Elevation: 2591 ft
TransAlt. 18000 ft.

Airport Communications:
ASOS:135.225
GREAT FALLS RDO:123.65
CTAF/UNICOM:122.8

KHVR Zoom In..

If you have problems with the map follow the link
https://www.worldairports.se/pages/airport.php?
ICAO=KHVR

Runways:

(A) RW 03 length 3699 ft width 60 ft
---- / hdg 32

(B) RW 08 length 5205 ft width 100 ft
---- / hdg 77

(C) RW 21 length 3699 ft width 60 ft
---- / hdg 212

(D) RW 26 length 5205 ft width 100 ft
---- / hdg 257

Location; KHVR
Day. 22 / Time. 16.53 Zulu
* Altimeter: 29.88
* Temperature: -24° c. 11.2°f.
* Wind from: 000° Speed 00 kn.
Dewpoint: -27° c.
Visibility: 7 Statute Miles.
Clouds: Clear (automated report).

KHVR 221653Z AUTO 00000KT 7SM CLR M24/M27 A2988 RMK AO2 SLP195 T12391267 $


Wind - Calm.

 
 
jpsmedia.com for Web Design worldairports.se 2019   terms of use